FW7782 Weather Reports


time (UTC)temp
C
wind
direction
speed
KPH
gust
KPH
rain 1hr
cm
rain 24hr
cm
rain mn
cm
humidity
%
barometer
mb
20260502224550 17 35 3.2 16.1 0.00 0.00 0.00 89 1016.8
20260502223051 17 44 6.4 19.3 0.00 0.00 0.00 89 1016.8
20260502221549 17 33 8.0 19.3 0.00 0.00 0.00 89 1016.5
20260502220048 17 73 4.8 14.5 0.00 0.00 0.00 89 1016.8
20260502214554 17 37 6.4 14.5 0.00 0.00 0.00 89 1016.9
20260502213051 17 52 3.2 8.0 0.00 0.00 0.00 90 1017.3
20260502211551 17 44 4.8 11.3 0.00 0.00 0.00 91 1017.1
20260502210050 17 38 3.2 9.7 0.00 0.00 0.00 90 1017.2
20260502204602 17 1 4.8 8.0 0.00 0.00 0.00 89 1017.0
20260502203108 17 48 8.0 17.7 0.00 0.00 0.00 89 1016.7
20260502201545 17 94 8.0 17.7 0.00 0.00 0.00 89 1016.5
20260502200052 17 77 9.7 20.9 0.00 0.00 0.00 89 1016.3
20260502194554 17 77 9.7 17.7 0.00 0.00 0.00 89 1016.2
20260502193051 17 78 8.0 12.9 0.00 0.00 0.00 89 1016.3
20260502191558 18 59 6.4 16.1 0.00 0.00 0.00 88 1016.5
20260502190054 18 120 4.8 17.7 0.00 0.00 0.00 88 1016.5
20260502184551 18 56 6.4 16.1 0.00 0.00 0.00 88 1016.2
20260502183057 18 73 9.7 19.3 0.00 0.00 0.00 88 1016.3
20260502181608 18 33 11.3 19.3 0.00 0.00 0.00 87 1016.5
20260502163056 19 105 6.4 19.3 0.00 0.00 0.00 86 1017.1
20260502161559 19 80 8.0 14.5 0.00 0.00 0.00 85 1017.2
20260502151602 19 75 8.0 14.5 0.00 0.00 0.00 84 1017.8
20260502123053 20 52 14.5 25.7 0.00 0.00 0.00 80 1019.1
20260502121555 20 72 9.7 20.9 0.00 0.00 0.00 79 1019.5
20260502114556 20 63 8.0 24.1 0.00 0.00 0.00 82 1020.1
20260502113053 20 75 9.7 17.7 0.00 0.00 0.00 82 1019.8
20260502111551 20 131 12.9 19.3 0.00 0.00 0.00 83 1020.2
20260502110058 20 56 11.3 19.3 0.00 0.00 0.00 83 1020.3
20260502104550 19 84 11.3 20.9 0.00 0.00 0.00 84 1020.4
20260502103059 20 88 9.7 20.9 0.00 0.00 0.00 82 1020.4
20260502101552 20 110 9.7 19.3 0.00 0.00 0.00 82 1020.7
20260502080104 18 49 8.0 20.9 0.00 0.00 0.00 85 1020.6
20260502070056 18 59 8.0 16.1 0.00 0.00 0.00 85 1020.9
20260502064600 18 49 8.0 17.7 0.00 0.00 0.00 84 1020.8
20260502063052 18 37 1.6 12.9 0.00 0.00 0.00 86 1020.7
20260502061555 17 45 3.2 8.0 0.00 0.00 0.00 87 1020.7
20260502060054 17 0 0.0 1.6 0.00 0.00 0.00 89 1020.6
20260502054558 17 0 0.0 1.6 0.00 0.00 0.00 90 1020.5
20260502053052 17 0 0.0 0.0 0.00 0.00 0.00 90 1020.7
20260502051552 17 0 0.0 0.0 0.00 0.00 0.00 90 1020.5
20260502050051 17 0 0.0 0.0 0.00 0.00 0.00 90 1020.3
20260502044550 17 0 0.0 0.0 0.00 0.00 0.00 90 1020.3
20260502043056 17 6 1.6 4.8 0.00 0.00 0.00 89 1020.3
20260502041552 17 25 1.6 6.4 0.00 0.00 0.00 89 1020.3
20260502040106 17 26 3.2 8.0 0.00 0.00 0.00 89 1020.6
20260502034554 17 354 4.8 9.7 0.00 0.00 0.00 90 1020.4
20260502033054 17 354 6.4 11.3 0.00 0.00 0.00 90 1020.5
20260502031555 17 17 4.8 9.7 0.00 0.00 0.00 90 1020.7
20260502030051 17 23 3.2 6.4 0.00 0.00 0.00 89 1020.6
20260502024550 17 47 3.2 9.7 0.00 0.00 0.00 87 1020.6
20260502023054 17 68 3.2 14.5 0.00 0.00 0.00 87 1020.6
20260502021550 17 71 6.4 16.1 0.00 0.00 0.00 86 1020.6
20260502020104 17 77 4.8 14.5 0.00 0.00 0.00 88 1020.7
20260502014551 17 79 6.4 11.3 0.00 0.00 0.00 88 1020.6
20260502013052 17 72 1.6 6.4 0.00 0.00 0.00 90 1020.8
20260502011557 16 0 0.0 0.0 0.00 0.00 0.00 90 1021.0
20260502010055 17 0 0.0 0.0 0.00 0.00 0.00 90 1021.2
20260502004556 17 0 0.0 0.0 0.00 0.00 0.00 90 1021.5
20260502003113 17 0 0.0 0.0 0.00 0.00 0.00 90 1021.7
20260502001628 17 320 0.0 3.2 0.00 0.00 0.00 89 1022.1
20260502000052 17 0 0.0 1.6 0.00 0.00 0.00 88 1022.2
20260501234553 18 297 0.0 12.9 0.00 0.05 0.00 86 1022.2
20260501233054 18 66 4.8 17.7 0.00 0.05 0.00 85 1022.2
20260501231554 18 68 6.4 16.1 0.00 0.05 0.00 86 1022.1
20260501230056 18 67 11.3 20.9 0.00 0.05 0.00 87 1022.0